This is the latest recevied weather packets stored in our database for station/object 9W2CHF-2. If no packets are shown the sender has not sent any weather packets the latest 10 day(s).
| Time | Temp. | Humidity | Pressure | Rain* | Wind** | Luminosity | Snow |
|---|---|---|---|---|---|---|---|
| 1787832043 | 33.33° C | 65% | 1011.1 hPa | - | - | - | - |
| 1787831143 | 33.33° C | 65% | 1010.9 hPa | - | - | - | - |
| 1787830243 | 33.33° C | 64% | 1010.7 hPa | - | - | - | - |
| 1787829343 | 33.33° C | 64% | 1010.6 hPa | - | - | - | - |
| 1787828443 | 33.33° C | 63% | 1010.5 hPa | - | - | - | - |
| 1787827542 | 33.33° C | 63% | 1010.3 hPa | - | - | - | - |
| 1787826642 | 33.33° C | 61% | 1010.2 hPa | - | - | - | - |
| 1787825742 | 33.33° C | 61% | 1010.1 hPa | - | - | - | - |
| 1787824842 | 33.33° C | 60% | 1009.9 hPa | - | - | - | - |
| 1787823942 | 33.33° C | 60% | 1010 hPa | - | - | - | - |
| 1787823042 | 33.33° C | 60% | 1009.9 hPa | - | - | - | - |
| 1787822142 | 33.33° C | 60% | 1009.7 hPa | - | - | - | - |
| 1787821241 | 33.33° C | 60% | 1009.6 hPa | - | - | - | - |
| 1787820341 | 33.33° C | 57% | 1009.4 hPa | - | - | - | - |
| 1787819441 | 33.33° C | 58% | 1009.5 hPa | - | - | - | - |
| 1787818541 | 33.89° C | 59% | 1009.7 hPa | - | - | - | - |
| 1787817641 | 33.33° C | 59% | 1009.9 hPa | - | - | - | - |
| 1787816741 | 33.33° C | 59% | 1010 hPa | - | - | - | - |
| 1787815840 | 33.33° C | 59% | 1010.2 hPa | - | - | - | - |
| 1787814940 | 33.33° C | 57% | 1010.4 hPa | - | - | - | - |
| 1787814040 | 33.33° C | 60% | 1010.5 hPa | - | - | - | - |
| 1787813140 | 33.33° C | 60% | 1010.7 hPa | - | - | - | - |
| 1787812239 | 33.33° C | 62% | 1011.1 hPa | - | - | - | - |
| 1787811339 | 32.78° C | 67% | 1011.2 hPa | - | - | - | - |
| 1787810439 | 32.78° C | 68% | 1011.6 hPa | - | - | - | - |
* Rain since midnight (hover to see other rain measurements)
** Current wind speed in m/s (hover to see current wind gust speed)